COSMOS 2251 DEB, 47051

Orbit data source: Space-Track

COSMOS 2251 DEB, 47051 is space debris in LEO originally from a launch on Wed, 16 Jun 1993 UTC launched from the Plesetsk Missile And Space Complex (PKMTR). The debris from Iridium 33, an American commercial communications satellite, has been tracked extensively since its accidental collision with the defunct Russian satellite Cosmos 2251 in 2009. This event, occurring at high speed in low Earth orbit (LEO), generated thousands of pieces of space debris, significantly increasing the risk of further collisions. The Iridium 33 debris cloud has impacted space traffic management and orbital debris mitigation strategies, making it a subject of ongoing study in space situational awareness.

Loading next visibility...
Identifier
47051, 1993-036BXF
Orbit
LEO
Country
Flag of CISCIS
Related business
Manufacturer
Unknown
Mission
Spacecraft
Bus & Motor
Unknown
Mass
Unknown
Launch date (UTC)
1993-06-16 (33 years ago)
Launch vehicle
Unknown
Launch site
Plesetsk Missile And Space Complex (PKMTR)
Object type
Payload
Rocket body
Debris
Shape & HBR
Unknown shape, 0.1 m
Radar Cross Section
Small (<0.1 m²)

Expand to show TLE details & history
Last TLE update: 4 hours ago

TLE from 4 hours ago
0 COSMOS 2251 DEB
1 47051U 93036BXF 26132.18855875  .00000650  00000-0  52976-3 0  9992
2 47051  74.1001 297.5873 0341611  16.5345 161.9450 13.67679199619946
Epoch: 2026-05-12T04:31Z
TLE epoch observation values (Epoch: 2026-05-12T04:31:31.475Z)
Latitude
0.23649°
Longitude
179.67261°
Altitude
1,251.141 km
Speed
7.111 km/s
True Right ascension
07h 50m 04s
True Declination
0° 14' 07"
Sunlit
Object was in daylight at epoch
Visualization orbit readout
Latitude
Unknown
Longitude
Unknown
Altitude
Unknown
Speed
Unknown
Apparent Right ascension
Unknown
Apparent Declination
Unknown
Sunlit
N/A
Visualization observer readout
Local Sidereal Time
17:08:41
Azimuth
Unknown
Elevation
Unknown
Doppler factor
Unknown
Orbital elements
Apogee altitude
1,257.842 km
Perigee altitude
753.369 km
Semi-major axis
7,383.743 km
Eccentricity
0.03416
Inclination
74.1001°
RAAN
297.5873°
Arg. of periapsis
16.5345°
True anomaly
163.11076°
Mean anomaly
161.945°
Eccentric anomaly
162.53251°
Mean motion
3.42081 °/min
Orbital period
105.24 mins
BSTAR
0.00052976
Loading maneuver chart data...
Computing Atmospheric mass density...

Documentation

Showing up to 5 results
|